KOREASAT 5A

Last updated on Thu Jul 03 2025 00:02:47 GMT+0000 (Coordinated Universal Time)

1 42984U 17067A 25183.62497845 -.00000351 00000+0 00000+0 0 9990 2 42984 0.0272 297.4428 0001167 152.0482 169.5448 1.00273223 28022
UTC large
Height (km)
Speed (km/s)
/
Latitude / Longitude
Inclination (degrees)
Orbital Period (minutes)
Azimuth
Elevation
Range (km)
Doppler Factor

Next 0 passes for location: London (51.5072 / 0.1276)

Sorry there are no passes over London.